Simultaneous Nadir Overpasses (SNOs) Predictions

Prediction of SNOs between GOES-16 and AQUA Satellite Orbit:

Table of predicted SNOs for the next 14.0 days since TLE Epoch: 2/9/2018
Index Date Time (GOES-16) GOES-16 Lat,Lon AQUA Lat,Lon Distance(km) Time Diff (sec)
1 02/10/2018 06:23:55 0.01, -75.18 -0.58, -72.39 317.77 80
2 02/10/2018 18:45:19 -0.01, -75.21 -0.53, -77.58 269.92 80
3 02/12/2018 18:35:49 -0.01, -75.22 0.12, -74.63 67.38 80
4 02/14/2018 18:23:39 -0.01, -75.23 0.78, -71.67 405.20 80
5 02/15/2018 06:44:54 0.01, -75.21 0.34, -76.82 182.81 80
6 02/17/2018 06:30:04 0.00, -75.24 -0.31, -73.87 155.67 80
7 02/17/2018 18:51:28 -0.00, -75.26 -0.84, -79.05 431.93 80
8 02/19/2018 06:17:53 0.00, -75.26 -0.91, -70.91 494.66 80
9 02/19/2018 18:39:18 -0.00, -75.29 -0.18, -76.10 92.69 80
10 02/21/2018 18:29:48 -0.00, -75.32 0.49, -73.15 246.92 80
11 02/22/2018 06:51:03 0.00, -75.31 0.63, -78.30 340.34 80




NCC Satellite Simultaneous Nadir Overpasses (SNOs) Prediction Service
